College Station, TX

3:46 PM CDT on May 24, 2017 (GMT -0500)
Easterwood

Weather History for KCLL - March, 2013

Change the Weather History Date:

Friday, March 15, 2013

  Actual Average Record
Temperature  
Mean Temperature 65 °F 61 °F  
Max Temperature 80 °F 72 °F 89 °F (1936)
Min Temperature 49 °F 51 °F 31 °F (1999)
Degree Days  
Heating Degree Days 0 6  
Month to date heating degree days 120 105  
Since 1 July heating degree days 1179 1492  
Cooling Degree Days 0 2  
Month to date cooling degree days 7 21  
Year to date cooling degree days 42 49  
Growing Degree Days 15 (Base 50)    
Moisture  
Dew Point 49 °F    
Average Humidity 59    
Maximum Humidity 89    
Minimum Humidity 28    
Precipitation  
Precipitation 0.00 in 0.11 in 2.81 in (1969)
Month to date precipitation 1.30 1.53  
Year to date precipitation 7.46 7.62  
Sea Level Pressure  
Sea Level Pressure 30.14 in    
Wind  
Wind Speed 11 mph (South)    
Max Wind Speed 21 mph    
Max Gust Speed 31 mph    
Visibility 10 miles    
Events      
T = Trace of Precipitation, MM = Missing Value Source: NWS Daily Summary

Daily Weather History Graph

Daily Weather History Graph

Search for Another Location

Airport or City:

Trip Planner

Search our weather history database for the weather conditions in past years. The results will help you decide how hot, cold, wet, or windy it might be!

Date:

Astronomy

Mar. 15, 2013 Rise Set
Actual Time 7:35 AM CDT 7:33 PM CDT
Civil Twilight 7:11 AM CDT 7:57 PM CDT
Nautical Twilight 6:43 AM CDT 8:25 PM CDT
Astronomical Twilight 6:15 AM CDT 8:53 PM CDT
Moon 9:44 AM CDT (3/15) 11:29 PM CDT (3/15)
Length of Visible Light 12h 46m
Length of Day
11h 58m
Waxing Crescent, 15% of the Moon is Illuminated
Mar 15
Waxing Crescent
Mar 19
First Quarter
Mar 27
Full
Apr 2
Last Quarter
Apr 10
New

Hourly Weather History & Observations

Time (CDT) Temp. Dew Point Humidity Pressure Visibility Wind Dir Wind Speed Gust Speed Precip Events Conditions
12:53 AM 57.9 °F 46.9 °F 67% 30.26 in 10.0 mi South 6.9 mph - N/A   Clear
1:53 AM 57.0 °F 46.0 °F 67% 30.25 in 10.0 mi South 6.9 mph - N/A   Clear
2:53 AM 55.0 °F 46.0 °F 72% 30.23 in 10.0 mi South 6.9 mph - N/A   Clear
3:53 AM 53.1 °F 46.0 °F 77% 30.22 in 10.0 mi South 5.8 mph - N/A   Clear
4:53 AM 51.1 °F 45.0 °F 80% 30.20 in 10.0 mi SE 4.6 mph - N/A   Clear
5:53 AM 51.1 °F 46.0 °F 83% 30.20 in 10.0 mi SSE 5.8 mph - N/A   Clear
6:53 AM 50.0 °F 46.0 °F 86% 30.21 in 10.0 mi SE 3.5 mph - N/A   Clear
7:53 AM 50.0 °F 46.0 °F 86% 30.21 in 10.0 mi SSE 5.8 mph - N/A   Clear
8:53 AM 54.0 °F 50.0 °F 86% 30.22 in 10.0 mi South 8.1 mph - N/A   Clear
9:53 AM 57.9 °F 52.0 °F 81% 30.22 in 10.0 mi SSW 11.5 mph - N/A   Clear
10:53 AM 64.9 °F 55.9 °F 73% 30.22 in 10.0 mi SSW 13.8 mph 21.9 mph N/A   Partly Cloudy
11:53 AM 70.0 °F 54.0 °F 57% 30.21 in 10.0 mi SSW 15.0 mph 20.7 mph N/A   Clear
12:53 PM 73.9 °F 48.9 °F 41% 30.18 in 10.0 mi SSW 17.3 mph 21.9 mph N/A   Clear
1:53 PM 77.0 °F 48.0 °F 36% 30.14 in 10.0 mi SSW 12.7 mph - N/A   Clear
2:53 PM 78.1 °F 45.0 °F 31% 30.09 in 10.0 mi SW 16.1 mph - N/A   Clear
3:53 PM 79.0 °F 46.9 °F 32% 30.06 in 10.0 mi South 11.5 mph 21.9 mph N/A   Clear
4:53 PM 80.1 °F 45.0 °F 29% 30.04 in 10.0 mi South 15.0 mph 23.0 mph N/A   Clear
5:53 PM 79.0 °F 50.0 °F 36% 30.02 in 10.0 mi South 16.1 mph 23.0 mph N/A   Clear
6:53 PM 75.9 °F 50.0 °F 40% 30.02 in 10.0 mi South 11.5 mph 21.9 mph N/A   Clear
7:53 PM 72.0 °F 50.0 °F 46% 30.02 in 10.0 mi South 10.4 mph - N/A   Clear
8:53 PM 69.1 °F 51.1 °F 53% 30.03 in 10.0 mi South 15.0 mph 24.2 mph N/A   Clear
9:53 PM 66.0 °F 52.0 °F 60% 30.04 in 10.0 mi South 16.1 mph - N/A   Clear
10:53 PM 64.0 °F 54.0 °F 70% 30.04 in 10.0 mi South 13.8 mph 20.7 mph N/A   Clear
11:53 PM 63.0 °F 55.9 °F 78% 30.03 in 10.0 mi South 13.8 mph - N/A   Clear